Flag for U.S.A. Weather past 2 weeks in Concord, California, U.S.A.

Now
56 °F

Clear.


Feels Like: 53 °F
Forecast: 52 / 67 °F
Wind: 10 mph from West

Location: Buchanan Field

Current Time: Apr 20, 2015 at 10:17:04 PM

Latest Report: Apr 20, 2015 at 8:53 PM


Visibility: 10 mi

Pressure: 29.80 "Hg

Humidity: 75%

Dew point: 48 °F

Location of ConcordLocation

Historic Weather in Concord — Graph

°F

Concord temperature yesterday

Maximum temperature yesterday: 78 °F (at 3:53 PM)
Minimum temperature yesterday: 50 °F (at 5:53 AM)
Average temperature yesterday: 62 °F

Past Weeks' High & Low Weather Summary

 TemperatureHumidityPressure
High83 °F (Apr 17, 2:53 PM)90% (Apr 12, 5:53 AM)30.31 "Hg (Apr 12, 5:53 AM)
Low42 °F (Apr 6, 6:53 AM)11% (Apr 16, 3:53 PM)29.73 "Hg (Apr 7, 4:53 AM)
Average59 °F55%29.98 "Hg
* Reported Apr 5 8:53 PM — Apr 20 8:53 PM, Concord, Weather by CustomWeather, © 2015

Note: Actual official high and low records may vary slightly from our data, if they occured in-between our weather recording intervals... More about our weather records

Advertising

Concord weather history for previous 24 hours

 ConditionsComfort  
Time TempWeatherWind HumidityBarometerVisibility
8:53 PM
Mon, Apr 20
56 °FClear.10 mph75%29.80 "Hg10 mi
7:53 PM58 °FPartly sunny.12 mph70%29.78 "Hg10 mi
6:53 PM63 °FSunny.14 mph58%29.77 "Hg10 mi
5:53 PM65 °FMild.15 mph56%29.77 "Hg10 mi
4:53 PM67 °FSunny.12 mph53%29.78 "Hg10 mi
3:53 PM68 °FSunny.16 mph51%29.78 "Hg10 mi
2:53 PM69 °FSunny.14 mph51%29.79 "Hg10 mi
1:53 PM69 °FSunny.14 mph47%29.80 "Hg10 mi
12:53 PM68 °FPassing clouds.12 mph53%29.81 "Hg10 mi
11:53 AM65 °FSunny.12 mph59%29.83 "Hg10 mi
10:53 AM62 °FScattered clouds.8 mph62%29.85 "Hg10 mi
9:53 AM59 °FOvercast.12 mph69%29.85 "Hg10 mi
8:53 AM56 °FOvercast.13 mph75%29.85 "Hg10 mi
7:53 AM54 °FOvercast.10 mph80%29.85 "Hg10 mi
6:53 AM54 °FOvercast.9 mph80%29.83 "Hg10 mi
5:53 AM54 °FOvercast.8 mph80%29.83 "Hg10 mi
4:53 AM54 °FOvercast.7 mph80%29.83 "Hg10 mi
3:53 AM53 °FOvercast.3 mph83%29.83 "Hg10 mi
2:53 AM54 °FPassing clouds.5 mph80%29.82 "Hg10 mi
1:53 AM54 °FClear.7 mph83%29.83 "Hg10 mi
12:53 AM55 °FClear.7 mph80%29.83 "Hg10 mi
11:53 PM
Sun, Apr 19
56 °FClear.9 mph77%29.83 "Hg10 mi
10:53 PM56 °FClear.10 mph77%29.83 "Hg10 mi
Weather by CustomWeather, © 2015

See weather overviewHow to use our weather pages